Home > Time Zones > World Clock > Weather > Norway > Oslo > Past weeks

Flag for Norway Weather past 2 weeks in Oslo, Norway

Now
43 °F

Quite cool.


Feels Like: 40 °F
Forecast: 37 / 59 °F
Wind: 5 mph from Northeast

Location: Oslo-Blindern

Current Time: Apr 18, 2015 at 11:17:21 PM

Latest Report: Apr 18, 2015 at 10:00 PM


Visibility: N/A

Pressure: 30.27 "Hg

Humidity: 75%

Dew point: 35 °F

Location of OsloLocation

Historic Weather in Oslo — Graph

°F

Oslo temperature yesterday

Maximum temperature yesterday: 53 °F (at 1:00 PM)
Minimum temperature yesterday: 39 °F (at 6:00 AM)
Average temperature yesterday: 47 °F

Past Weeks' High & Low Weather Summary

 TemperatureHumidityPressure
High60 °F (Apr 9, 5:00 PM)98% (Apr 11, 6:00 AM)30.44 "Hg (Apr 11, 6:00 AM)
Low28 °F (Apr 5, 7:00 AM)23% (Apr 8, 12:00 PM)29.44 "Hg (Apr 15, 4:00 PM)
Average44 °F57%30.01 "Hg
* Reported Apr 3 10:00 PM — Apr 18 10:00 PM, Oslo, Weather by CustomWeather, © 2015

Note: Actual official high and low records may vary slightly from our data, if they occured in-between our weather recording intervals... More about our weather records

Advertising

Oslo weather history for previous 24 hours

 ConditionsComfort  
Time TempWeatherWind HumidityBarometerVisibility
10:00 PM
Sat, Apr 18
43 °FQuite cool.5 mph75%30.27 "HgN/A
9:00 PM46 °FCool.9 mph65%30.25 "HgN/A
8:00 PM50 °FOvercast.8 mph46%30.21 "Hg43 mi
7:00 PM51 °FCool.3 mph43%30.20 "HgN/A
6:00 PM53 °FCool.5 mph37%30.19 "HgN/A
5:00 PM53 °FOvercast.8 mph35%30.17 "Hg47 mi
4:00 PM56 °FRefreshingly cool.7 mph28%30.18 "HgN/A
3:00 PM58 °FRefreshingly cool.6 mph27%30.17 "HgN/A
2:00 PM57 °FRefreshingly cool.1 mph38%30.20 "HgN/A
1:00 PM55 °FCool.2 mph43%30.21 "HgN/A
11:00 AM49 °FPartly sunny.1 mph51%30.26 "Hg47 mi
10:00 AM45 °FCool.1 mph57%30.26 "HgN/A
9:00 AM44 °FQuite cool.1 mph61%30.27 "HgN/A
8:00 AM41 °FScattered clouds.1 mph66%30.29 "Hg47 mi
7:00 AM35 °FChilly.2 mph79%30.29 "HgN/A
6:00 AM34 °FChilly.1 mph81%30.30 "HgN/A
4:00 AM37 °FChilly.3 mph72%30.31 "HgN/A
3:00 AM38 °FChilly.3 mph70%30.30 "HgN/A
2:00 AM39 °FClear.2 mph66%30.30 "Hg47 mi
1:00 AM43 °FQuite cool.3 mph57%30.29 "HgN/A
12:00 AM44 °FQuite cool.3 mph55%30.28 "HgN/A
11:00 PM
Fri, Apr 17
42 °FPassing clouds.1 mph58%30.27 "Hg47 mi
Weather by CustomWeather, © 2015

See weather overviewHow to use our weather pages